Nantucket, Massachusetts, United States (02554)
Lat: 41.28N, Lon: 70.1W
Wx Zone: MAZ024
Local Info
Past Weather Observations for Today

NOTE: This archive is for the closest National Weather Service station to Nantucket. Information may differ from the station used for current weather conditions.

Click here for Long-term Archive

Time Weather Temperature Dewpoint Humidity Pressure Winds Precip Visibility
14:53
Overcast
Fog And Mist
61°F / 16°C 57°F / 14°C 88% 29.74 in
(1007 mb)
S 31.1 mph
(S 50 kph)
- 1 3/4SM
13:53
Overcast
Fog And Mist
59°F / 15°C 57°F / 14°C 94% 29.74 in
(1007 mb)
S 21.9 mph
(S 35 kph)
- 1 3/4SM
13:16
Overcast
Fog And Mist
59°F / 15°C 57°F / 14°C 94% 29.74 in
(1007 mb)
S 24.2 mph
(S 39 kph)
- 1 3/4SM
12:53
Overcast
Fog And Mist
59°F / 15°C 57°F / 14°C 94% 29.77 in
(1008 mb)
S 24.2 mph
(S 39 kph)
0.01 in
(0.25 mm)
2 1/2SM
12:29
Overcast
Fog And Mist
59°F / 15°C 57°F / 14°C 94% 29.77 in
(1008 mb)
S 24.2 mph
(S 39 kph)
- 2 1/2SM
12:11
Overcast
Fog And Mist
59°F / 15°C 57°F / 14°C 94% 29.77 in
(1008 mb)
S 26.5 mph
(S 43 kph)
- 3SM
11:53
Overcast
Fog And Mist
59°F / 15°C 57°F / 14°C 94% 29.77 in
(1008 mb)
S 26.5 mph
(S 43 kph)
0.02 in
(0.51 mm)
3SM
10:53
Overcast
Light Rain
57°F / 14°C 55°F / 13°C 94% 29.8 in
(1009 mb)
S 27.6 mph
(S 44 kph)
0.07 in
(1.78 mm)
1SM
10:08
Overcast
Light Rain
57°F / 14°C 55°F / 13°C 94% 29.83 in
(1010 mb)
SSE 26.5 mph
(SSE 43 kph)
0.03 in
(0.76 mm)
1 3/4SM
09:57
Overcast
Fog And Mist
57°F / 14°C 55°F / 13°C 94% 29.86 in
(1011 mb)
SSE 25.3 mph
(SSE 41 kph)
0.00 in
(0.00 mm)
3SM
09:53
Overcast
Light Rain
57°F / 14°C 55°F / 13°C 94% 29.86 in
(1011 mb)
SSE 26.5 mph
(SSE 43 kph)
0.00 in
(0.00 mm)
2 1/2SM
09:38
Overcast
Fog And Mist
57°F / 14°C 55°F / 13°C 94% 29.86 in
(1011 mb)
SSE 26.5 mph
(SSE 43 kph)
0.00 in
(0.00 mm)
3SM
08:59
Overcast
Fog And Mist
57°F / 14°C 54°F / 12°C 88% 29.89 in
(1012 mb)
SSE 24.2 mph
(SSE 39 kph)
0.00 in
(0.00 mm)
4SM
08:53
Overcast
Light Rain
55°F / 13°C 54°F / 12°C 94% 29.89 in
(1012 mb)
SSE 24.2 mph
(SSE 39 kph)
0.09 in
(2.29 mm)
3SM
07:53
Overcast
Rain
55°F / 13°C 54°F / 12°C 94% 29.95 in
(1014 mb)
SSE 21.9 mph
(SSE 35 kph)
0.07 in
(1.78 mm)
3SM
07:46
Overcast
Rain
55°F / 13°C 54°F / 12°C 94% 29.95 in
(1014 mb)
SSE 23 mph
(SSE 37 kph)
0.06 in
(1.52 mm)
2SM
07:35
Overcast
Rain
55°F / 13°C 54°F / 12°C 94% 29.95 in
(1014 mb)
SSE 23 mph
(SSE 37 kph)
0.05 in
(1.27 mm)
2SM
07:26
Overcast
Light Rain
55°F / 13°C 54°F / 12°C 94% 29.95 in
(1014 mb)
SSE 23 mph
(SSE 37 kph)
0.03 in
(0.76 mm)
2 1/2SM
06:53
Overcast
55°F / 13°C 52°F / 11°C 88% 29.95 in
(1014 mb)
SSE 23 mph
(SSE 37 kph)
- 8SM
05:53
Overcast
54°F / 12°C 52°F / 11°C 94% 29.98 in
(1015 mb)
SSE 19.6 mph
(SSE 32 kph)
- 9SM
04:53
Overcast
54°F / 12°C 50°F / 10°C 88% 30.01 in
(1016 mb)
SSE 18.4 mph
(SSE 30 kph)
- 9SM
03:53
Mostly Cloudy
54°F / 12°C 48°F / 9°C 82% 30.04 in
(1017 mb)
SE 15 mph
(SE 24 kph)
- 10SM
02:53
Overcast
52°F / 11°C 50°F / 10°C 94% 30.06 in
(1018 mb)
SE 12.7 mph
(SE 20 kph)
- 8SM
01:53
Clear
52°F / 11°C 48°F / 9°C 88% 30.12 in
(1020 mb)
SE 11.5 mph
(SE 19 kph)
- 9SM
00:53
Clear
52°F / 11°C 48°F / 9°C 88% 30.12 in
(1020 mb)
SE 10.4 mph
(SE 17 kph)
- 7SM
Time Weather Temperature Dewpoint Humidity Pressure Winds Precip Visibility


Weather for websites

WeatherForYou.com, LLC is not responsible for any damages or problems caused by this service. Current weather conditions are obtained from the closest station including government and personal stations which may have varying degrees of accuracy. Weather forecasts are derived from the NOAA NDFD. Like all things, this site belongs to Jesus Christ... He just trusts me to maintain it. If you have any questions or comments email webmaster@weatherforyou.com

Copyright © 2014, WeatherForYou.com LLC. All rights reserved.